Swanton, VT

4:07 PM EST on December 06, 2016 (GMT -0500)
Franklin County State

Weather History for KFSO - February, 2014

Change the Weather History Date:

Wednesday, February 26, 2014

  Actual Average (KPBG) Record (KPBG)
Temperature  
Mean Temperature 14 °F 25 °F  
Max Temperature 23 °F 34 °F 52 °F (1957)
Min Temperature 3 °F 15 °F -16 °F (1993)
Degree Days  
Heating Degree Days 51 40  
Month to date heating degree days 1155  
Since 1 July heating degree days 5531  
Cooling Degree Days 0 0  
Month to date cooling degree days 0  
Year to date cooling degree days 0  
Moisture  
Dew Point 0 °F    
Average Humidity 53    
Maximum Humidity 80    
Minimum Humidity 25    
Precipitation  
Precipitation 0.00 in - 0.46 in (1960)
Month to date precipitation  
Year to date precipitation  
Sea Level Pressure  
Sea Level Pressure 29.79 in    
Wind  
Wind Speed 5 mph (SW)    
Max Wind Speed 15 mph    
Max Gust Speed 26 mph    
Visibility 10 miles    
Events Snow    
T = Trace of Precipitation, MM = Missing Value Source: NWS Daily Summary

Daily Weather History Graph

Daily Weather History Graph

Search for Another Location

Airport or City:

Trip Planner

Search our weather history database for the weather conditions in past years. The results will help you decide how hot, cold, wet, or windy it might be!

Date:

Astronomy

Feb. 26, 2014 Rise Set
Actual Time 6:35 AM EST 5:35 PM EST
Civil Twilight 6:05 AM EST 6:05 PM EST
Nautical Twilight 5:31 AM EST 6:39 PM EST
Astronomical Twilight 4:58 AM EST 7:13 PM EST
Moon 4:25 AM EST (2/26) 2:42 PM EST (2/26)
Length of Visible Light 11h 59m
Length of Day
11h 00m
Waning Crescent, 10% of the Moon is Illuminated
Feb 26
Waning Crescent
Mar 1
New
Mar 8
First Quarter
Mar 16
Full
Mar 23
Last Quarter

Hourly Weather History & Observations

Time (EST) Temp. Windchill Dew Point Humidity Pressure Visibility Wind Dir Wind Speed Gust Speed Precip Events Conditions
12:15 AM 10.9 °F 1.4 °F 5.4 °F 78% 29.87 in 10.0 mi SE 5.8 mph - N/A   Scattered Clouds
12:35 AM 10.8 °F 2.7 °F 5.4 °F 79% 29.87 in 10.0 mi SE 4.6 mph - N/A   Mostly Cloudy
12:55 AM 10.8 °F - 5.0 °F 78% 29.86 in 10.0 mi Calm Calm - N/A   Overcast
1:15 AM 10.9 °F 4.7 °F 5.0 °F 77% 29.86 in 10.0 mi SE 3.5 mph - N/A   Overcast
1:35 AM 11.5 °F - 5.5 °F 77% 29.85 in 10.0 mi Calm Calm - N/A   Overcast
1:55 AM 12.4 °F - 6.3 °F 76% 29.84 in 10.0 mi Calm Calm - N/A   Overcast
2:15 AM 13.1 °F - 6.6 °F 75% 29.83 in 10.0 mi Calm Calm - N/A   Overcast
2:35 AM 13.3 °F 7.3 °F 6.1 °F 73% 29.82 in 10.0 mi SSE 3.5 mph - N/A   Overcast
2:55 AM 15.8 °F 8.6 °F 7.9 °F 71% 29.82 in 5.0 mi South 4.6 mph - N/A Snow Light Snow
3:20 AM 15.8 °F 8.6 °F 9.5 °F 76% 29.81 in 2.0 mi South 4.6 mph - N/A Snow Light Snow
3:35 AM 15.8 °F 7.2 °F 10.2 °F 79% 29.80 in 2.5 mi SSE 5.8 mph - N/A Snow Light Snow
3:55 AM 15.8 °F 8.6 °F 10.2 °F 79% 29.79 in 10.0 mi South 4.6 mph - N/A   Mostly Cloudy
4:15 AM 15.8 °F 10.2 °F 9.5 °F 76% 29.78 in 10.0 mi SSE 3.5 mph - N/A   Scattered Clouds
4:35 AM 11.7 °F 3.7 °F 4.8 °F 74% 29.77 in 10.0 mi ESE 4.6 mph - N/A   Clear
4:55 AM 10.8 °F - 5.7 °F 80% 29.77 in 10.0 mi Calm Calm - N/A   Clear
5:15 AM 11.5 °F 3.5 °F 6.4 °F 80% 29.77 in 10.0 mi SSE 4.6 mph - N/A   Scattered Clouds
5:35 AM 13.3 °F 5.6 °F 6.6 °F 75% 29.76 in 10.0 mi South 4.6 mph - N/A   Overcast
5:55 AM 14.9 °F 7.5 °F 7.0 °F 71% 29.75 in 10.0 mi South 4.6 mph - N/A   Overcast
6:15 AM 15.8 °F 7.2 °F 7.3 °F 69% 29.74 in 10.0 mi South 5.8 mph - N/A   Overcast
6:35 AM 15.8 °F 6.1 °F 6.8 °F 68% 29.73 in 10.0 mi South 6.9 mph - N/A   Overcast
6:55 AM 15.8 °F 6.1 °F 7.0 °F 68% 29.72 in 10.0 mi South 6.9 mph - N/A   Overcast
7:15 AM 16.7 °F 5.3 °F 7.7 °F 68% 29.72 in 10.0 mi South 9.2 mph - N/A   Overcast
7:35 AM 17.1 °F 6.6 °F 9.1 °F 71% 29.72 in 3.0 mi South 8.1 mph - N/A Snow Light Snow
7:55 AM 18.3 °F 8.2 °F 10.2 °F 71% 29.72 in 10.0 mi South 8.1 mph 17.3 mph N/A   Overcast
8:15 AM 18.3 °F 6.6 °F 8.6 °F 66% 29.72 in 10.0 mi SSW 10.4 mph 16.1 mph N/A   Overcast
8:35 AM 18.5 °F 8.4 °F 8.6 °F 65% 29.72 in 10.0 mi South 8.1 mph - N/A   Overcast
8:55 AM 20.8 °F 13.2 °F 8.8 °F 60% 29.73 in 10.0 mi SSW 5.8 mph 17.3 mph N/A   Overcast
9:15 AM 20.8 °F 9.7 °F 8.1 °F 58% 29.74 in 10.0 mi SW 10.4 mph 21.9 mph N/A   Overcast
9:35 AM 20.8 °F 10.4 °F 8.6 °F 59% 29.74 in 10.0 mi SSW 9.2 mph 18.4 mph N/A   Overcast
9:55 AM 23.7 °F 15.6 °F 9.0 °F 53% 29.74 in 10.0 mi WSW 6.9 mph 18.4 mph N/A   Overcast
10:15 AM 23.4 °F 14.3 °F 6.3 °F 48% 29.75 in 10.0 mi West 8.1 mph 19.6 mph N/A   Overcast
10:35 AM 20.8 °F 7.3 °F 6.4 °F 54% 29.76 in 10.0 mi West 15.0 mph 23.0 mph N/A   Overcast
10:55 AM 21.7 °F 9.0 °F -1.3 °F 37% 29.77 in 10.0 mi West 13.8 mph 21.9 mph N/A   Overcast
11:15 AM 21.4 °F 10.4 °F -5.3 °F 31% 29.77 in 10.0 mi WSW 10.4 mph 17.3 mph N/A   Overcast
11:35 AM 21.0 °F 8.1 °F -6.9 °F 29% 29.77 in 10.0 mi WSW 13.8 mph 20.7 mph N/A   Overcast
11:55 AM 21.7 °F 11.5 °F -8.0 °F 27% 29.77 in 10.0 mi WSW 9.2 mph 18.4 mph N/A   Overcast
12:15 PM 20.8 °F 9.7 °F -8.9 °F 27% 29.77 in 10.0 mi WSW 10.4 mph 24.2 mph N/A   Overcast
12:35 PM 21.0 °F 8.1 °F -8.9 °F 27% 29.77 in 10.0 mi WSW 13.8 mph 24.2 mph N/A   Overcast
12:55 PM 20.8 °F 9.7 °F -9.2 °F 26% 29.77 in 10.0 mi WSW 10.4 mph 26.5 mph N/A   Overcast
1:20 PM 20.8 °F 7.9 °F -9.2 °F 26% 29.77 in 10.0 mi West 13.8 mph 24.2 mph N/A   Mostly Cloudy
1:35 PM 20.8 °F 9.0 °F -9.4 °F 26% 29.77 in 10.0 mi West 11.5 mph 17.3 mph N/A   Mostly Cloudy
1:55 PM 20.8 °F 9.0 °F -9.0 °F 26% 29.77 in 10.0 mi West 11.5 mph 20.7 mph N/A   Overcast
2:15 PM 21.4 °F 8.0 °F -9.6 °F 25% 29.77 in 10.0 mi WSW 15.0 mph 24.2 mph N/A   Mostly Cloudy
2:35 PM 20.8 °F 12.1 °F -9.6 °F 26% 29.77 in 10.0 mi WSW 6.9 mph 20.7 mph N/A   Overcast
2:55 PM 21.2 °F 10.9 °F -9.6 °F 25% 29.77 in 10.0 mi WSW 9.2 mph 17.3 mph N/A   Overcast
3:15 PM 20.8 °F 10.4 °F -6.9 °F 29% 29.77 in 10.0 mi West 9.2 mph - N/A   Overcast
3:35 PM 20.7 °F 11.0 °F -6.5 °F 30% 29.78 in 10.0 mi West 8.1 mph 16.1 mph N/A   Overcast
3:55 PM 18.3 °F 9.1 °F -7.2 °F 32% 29.78 in 10.0 mi West 6.9 mph - N/A   Overcast
4:15 PM 18.3 °F 9.1 °F -6.0 °F 34% 29.79 in 10.0 mi West 6.9 mph - N/A   Overcast
4:35 PM 18.3 °F 9.1 °F -4.9 °F 36% 29.79 in 10.0 mi WNW 6.9 mph - N/A   Overcast
4:55 PM 17.8 °F 8.5 °F -4.9 °F 37% 29.80 in 10.0 mi WNW 6.9 mph - N/A   Overcast
5:15 PM 17.1 °F 7.6 °F -4.5 °F 38% 29.81 in 10.0 mi West 6.9 mph - N/A   Overcast
5:35 PM 15.8 °F 8.6 °F -5.3 °F 39% 29.82 in 10.0 mi West 4.6 mph - N/A   Mostly Cloudy
5:55 PM 15.8 °F 7.2 °F -4.0 °F 41% 29.82 in 10.0 mi West 5.8 mph - N/A   Scattered Clouds
6:15 PM 15.8 °F - -2.7 °F 44% 29.82 in 10.0 mi Calm Calm - N/A   Clear
6:35 PM 13.1 °F - -4.0 °F 47% 29.83 in 10.0 mi Calm Calm - N/A   Clear
6:55 PM 13.1 °F 7.1 °F -4.0 °F 47% 29.83 in 10.0 mi West 3.5 mph - N/A   Clear
7:15 PM 13.1 °F 7.1 °F -4.5 °F 45% 29.84 in 10.0 mi West 3.5 mph - N/A   Clear
7:35 PM 13.1 °F - -4.2 °F 46% 29.83 in 10.0 mi Calm Calm - N/A   Clear
7:55 PM 12.0 °F - -4.4 °F 48% 29.83 in 10.0 mi Calm Calm - N/A   Clear
8:15 PM 12.0 °F - -4.4 °F 48% 29.83 in 10.0 mi Calm Calm - N/A   Clear
8:35 PM 10.8 °F - -4.9 °F 49% 29.83 in 10.0 mi Calm Calm - N/A   Clear
8:55 PM 10.8 °F 4.5 °F -3.8 °F 52% 29.84 in 10.0 mi South 3.5 mph - N/A   Clear
9:15 PM 10.8 °F 4.5 °F -3.8 °F 52% 29.84 in 10.0 mi SSW 3.5 mph - N/A   Clear
9:35 PM 10.8 °F 4.5 °F -4.0 °F 52% 29.84 in 10.0 mi SSW 3.5 mph - N/A   Clear
9:55 PM 10.8 °F - -4.5 °F 50% 29.84 in 10.0 mi Calm Calm - N/A   Clear
10:20 PM 10.8 °F 4.5 °F -3.3 °F 53% 29.83 in 10.0 mi South 3.5 mph - N/A   Clear
10:35 PM 10.8 °F - -3.5 °F 53% 29.82 in 10.0 mi Calm Calm - N/A   Clear
10:55 PM 8.2 °F 1.6 °F -6.0 °F 52% 29.82 in 10.0 mi South 3.5 mph - N/A   Clear
11:15 PM 8.2 °F - -6.0 °F 52% 29.82 in 10.0 mi Calm Calm - N/A   Clear
11:35 PM 5.2 °F - -7.4 °F 56% 29.81 in 10.0 mi Calm Calm - N/A   Clear
11:55 PM 3.2 °F - -6.3 °F 65% 29.81 in 10.0 mi Calm Calm - N/A   Clear